Stations météo

Publicité
Bergerac, France (7530): Température de l'air & dewpoint: 26.03.2020 10:00:00 - 01.04.2020 10:00:00 (CEST)Bergerac, France (7530): Température de l'air 5cm: 26.03.2020 10:00:00 - 01.04.2020 10:00:00 (CEST)Bergerac, France (7530): Température de l'air -20cm & Température de l'air -100cm: 26.03.2020 10:00:00 - 01.04.2020 10:00:00 (CEST)Bergerac, France (7530): Vitesse du vent & gusts: 26.03.2020 10:00:00 - 01.04.2020 10:00:00 (CEST)Bergerac, France (7530): Direction du vent: 26.03.2020 10:00:00 - 01.04.2020 10:00:00 (CEST)Bergerac, France (7530): reduced air pressure: 26.03.2020 10:00:00 - 01.04.2020 10:00:00 (CEST)Bergerac, France (7530): visibility: 26.03.2020 10:00:00 - 01.04.2020 10:00:00 (CEST)Bergerac, France (7530): Ensoleillement: 26.03.2020 10:00:00 - 01.04.2020 10:00:00 (CEST)Bergerac, France (7530): Quantités de précipitations: 26.03.2020 10:00:00 - 01.04.2020 10:00:00 (CEST)
Date & Time tt [°C] td [°C] tt 5cm [°C] tt -20cm [°C] tt -100cm [°C] ff [km/h] ff [knt] fx [km/h] fx [knt] dd ppp [hPa] vv [km] sd [min] rr [mm]
01.04.2020 10:00:00 - - - - - - - - - - - - - -
01.04.2020 09:00:00 8,3 2,7 2,3 9,3 10,6 15 8 24 13 ENE 1016,5 44 55 0,0
01.04.2020 08:00:00 5,0 1,3 0,2 9,4 10,6 14 7 21 12 ENE 1016,3 31 1 0,0
01.04.2020 07:00:00 4,4 0,4 0,2 9,5 10,5 9 5 20 11 E 1016,4 35 0 0,0
01.04.2020 06:00:00 5,3 0,8 -0,4 9,6 10,6 11 6 21 11 E 1016,2 36 0 0,0
01.04.2020 05:00:00 5,0 0,7 -0,5 9,6 10,6 8 5 16 9 ENE 1016,2 36 0 0,0
01.04.2020 04:00:00 5,9 1,0 -0,2 9,7 10,6 9 5 18 10 ENE 1016,3 39 0 0,0
01.04.2020 03:00:00 5,9 0,6 -0,1 9,7 10,6 8 4 14 8 ENE 1016,3 43 0 0,0
01.04.2020 02:00:00 7,1 0,7 0,7 9,8 10,6 0 0 15 8 N 1016,3 49 0 0,0
01.04.2020 01:00:00 7,7 0,9 3,9 9,8 10,6 13 7 24 13 E 1016,4 50 0 0,0
01.04.2020 00:00:00 9,2 0,1 4,3 9,8 10,6 11 6 23 12 E 1016,0 51 0 0,0
31.03.2020 23:00:00 10,5 -0,4 4,2 9,8 10,6 15 8 24 13 NE 1015,6 58 0 0,0
31.03.2020 22:00:00 11,2 -0,3 4,5 9,8 10,6 11 6 20 11 NE 1015,3 59 0 0,0
31.03.2020 21:00:00 12,6 1,0 5,2 9,7 10,6 9 5 21 11 NE 1014,9 60 3 0,0
31.03.2020 20:00:00 16,0 2,4 7,9 9,6 10,6 2 1 13 7 NE 1014,4 60 60 0,0
31.03.2020 19:00:00 16,9 3,9 16,6 9,5 10,6 6 4 25 13 E 1014,5 53 60 0,0
31.03.2020 18:00:00 16,8 4,5 16,0 9,3 10,6 11 6 24 13 ENE 1014,5 37 40 0,0
31.03.2020 17:00:00 15,1 4,7 15,5 9,2 10,6 13 7 31 17 ENE 1014,6 20 22 0,0
31.03.2020 16:00:00 15,8 4,2 22,7 9,0 10,6 17 9 30 16 NNE 1015,0 20 60 0,0
31.03.2020 15:00:00 14,2 5,3 18,7 8,9 10,6 16 9 28 15 NE 1015,9 20 31 0,0
31.03.2020 14:00:00 12,9 3,8 17,3 8,8 10,6 13 7 29 16 NE 1016,5 35 41 0,0
31.03.2020 13:00:00 11,4 4,4 17,8 8,7 10,6 15 8 26 14 NE 1017,2 19 51 0,0
31.03.2020 12:00:00 10,1 3,4 17,9 8,7 10,6 9 5 17 9 NE 1017,7 20 60 0,0
31.03.2020 11:00:00 8,1 3,4 7,6 8,7 10,6 9 5 18 10 NE 1018,1 20 26 0,0
31.03.2020 10:00:00 4,6 2,0 4,6 8,8 10,6 8 5 12 6 E 1018,1 20 0 0,0
31.03.2020 09:00:00 2,5 1,8 0,5 8,9 10,7 3 2 6 4 ENE 1017,9 20 0 0,0
31.03.2020 08:00:00 1,7 1,0 0,1 8,9 10,6 3 1 5 3 NE 1017,7 12 0 0,0
31.03.2020 07:00:00 1,2 0,3 -0,6 9,0 10,7 0 0 6 3 N 1017,2 0,6 0 0,0
31.03.2020 06:00:00 1,8 0,9 -0,6 9,0 10,6 0 0 5 3 N 1017,4 0,3 0 0,0
31.03.2020 05:00:00 2,9 2,0 0,4 9,0 10,7 3 2 5 3 SW 1017,5 0,3 0 0,0
31.03.2020 04:00:00 3,8 2,9 1,3 9,1 10,7 3 2 5 3 W 1017,6 0,2 0 0,0
31.03.2020 03:00:00 4,4 3,5 3,8 9,1 10,7 4 2 6 3 W 1018,1 2,4 0 0,0
31.03.2020 02:00:00 4,4 3,5 3,2 9,1 10,7 4 2 5 3 WNW 1018,4 3,5 0 0,0
31.03.2020 01:00:00 4,5 3,5 3,2 9,1 10,7 0 0 4 2 N 1018,6 6 0 0,0
31.03.2020 00:00:00 4,7 3,7 4,2 9,1 10,7 3 1 4 2 S 1019,1 7 0 0,0
30.03.2020 23:00:00 4,7 3,5 3,7 9,2 10,7 4 2 6 3 NNE 1019,3 7 0 0,0
30.03.2020 22:00:00 4,6 3,3 3,8 9,1 10,7 4 2 5 3 NNE 1019,4 8 0 0,0
30.03.2020 21:00:00 4,9 3,2 4,8 9,2 10,7 3 1 4 2 S 1018,9 14 0 0,0
30.03.2020 20:00:00 5,0 3,2 4,9 9,2 10,7 3 2 12 6 E 1018,6 18 0 0,0
30.03.2020 19:00:00 5,0 3,2 5,5 9,1 10,7 7 4 16 8 E 1018,4 20 0 0,0
30.03.2020 18:00:00 4,8 3,1 4,8 9,2 10,7 9 5 22 12 NE 1018,5 20 0 0,2
30.03.2020 17:00:00 4,6 2,8 4,9 9,2 10,7 11 6 18 10 ENE 1018,6 9 0 0,4
30.03.2020 16:00:00 4,7 3,0 5,2 9,2 10,7 9 5 16 9 ENE 1018,6 7 0 1,2
30.03.2020 15:00:00 4,8 3,0 5,3 9,2 10,7 9 5 19 10 NNE 1018,8 10 0 0,4
30.03.2020 14:00:00 4,9 3,1 5,5 9,2 10,7 13 7 25 14 NE 1019,1 7 0 0,6
30.03.2020 13:00:00 4,6 3,1 4,7 9,2 10,7 10 6 29 15 NE 1019,3 6 0 0,8
30.03.2020 12:00:00 4,0 2,7 4,4 9,3 10,7 6 3 16 9 NNE 1019,6 7 0 0,4
30.03.2020 11:00:00 2,9 1,4 3,0 9,3 10,7 9 5 17 9 N 1019,9 7 0 0,6
30.03.2020 10:00:00 2,6 0,8 2,7 9,4 10,7 11 6 22 12 NNW 1019,8 12 0 0,4
30.03.2020 09:00:00 3,0 0,2 2,8 9,4 10,7 16 9 27 15 N 1019,7 11 0 0,2
30.03.2020 08:00:00 3,9 -1,1 3,3 9,5 10,7 11 6 26 14 NNW 1019,4 37 0 0,0
30.03.2020 07:00:00 4,1 -1,3 3,4 9,6 10,7 12 7 33 18 N 1019,3 42 0 0,0
30.03.2020 06:00:00 4,6 -1,8 3,8 9,6 10,7 21 12 42 23 N 1019,6 41 0 0,0
30.03.2020 05:00:00 5,1 -2,3 4,1 9,6 10,7 19 10 34 18 N 1020,0 57 0 0,0
30.03.2020 04:00:00 5,3 -2,5 3,9 9,7 10,7 12 6 27 15 N 1020,4 58 0 0,0
30.03.2020 03:00:00 5,2 -3,1 3,8 9,8 10,7 13 7 29 15 N 1020,9 59 0 0,0
30.03.2020 02:00:00 5,7 -3,7 3,4 9,8 10,7 15 8 35 19 N 1021,0 57 0 0,0
30.03.2020 01:00:00 5,9 -3,0 3,1 9,9 10,7 17 9 33 18 NNE 1021,3 58 0 0,0
30.03.2020 00:00:00 4,8 0,2 3,3 9,9 10,7 8 5 21 12 NNW 1021,6 39 0 0,0
29.03.2020 23:00:00 4,8 1,6 3,4 10,0 10,8 3 2 6 3 SW 1022,1 31 0 0,0
29.03.2020 22:00:00 4,8 0,9 3,6 10,0 10,7 5 3 28 15 NNE 1022,4 38 0 0,0
29.03.2020 21:00:00 4,7 1,2 3,7 10,0 10,7 12 7 44 24 NNE 1022,7 19 0 0,2
29.03.2020 20:00:00 4,9 1,0 4,0 10,0 10,7 18 10 40 22 NNE 1022,5 25 0 0,0
29.03.2020 19:00:00 6,5 0,2 4,7 9,9 10,7 27 14 45 24 NNE 1021,7 33 0 0,2
29.03.2020 18:00:00 7,1 -0,1 6,5 9,9 10,8 25 13 51 28 NNE 1021,4 20 0 0,0
29.03.2020 17:00:00 9,4 1,3 11,3 9,8 10,7 26 14 45 24 NNE 1021,0 60 0 0,0
29.03.2020 16:00:00 10,7 2,8 13,3 9,7 10,8 25 14 42 23 NNE 1020,7 20 0 0,0
29.03.2020 15:00:00 11,3 4,0 14,7 9,6 10,7 22 12 36 19 N 1020,7 19 1 0,0
29.03.2020 14:00:00 11,5 4,0 16,1 9,6 10,8 23 12 38 20 N 1020,7 12 10 0,0
29.03.2020 13:00:00 12,1 4,3 14,9 9,5 10,7 21 11 35 19 N 1020,9 10 27 0,0
29.03.2020 12:00:00 10,8 3,8 15,0 9,6 10,8 23 12 33 18 N 1020,9 9 39 0,0
29.03.2020 11:00:00 10,5 4,0 11,8 9,6 10,8 18 10 32 18 N 1020,7 9 52 0,0
29.03.2020 10:00:00 8,4 5,3 5,0 9,7 10,7 9 5 16 8 W 1020,5 6 57 0,0
29.03.2020 09:00:00 5,1 4,1 -0,6 9,8 10,8 8 5 13 7 W 1020,1 3,8 2 0,0
29.03.2020 08:00:00 3,2 1,4 -0,8 9,8 10,8 4 2 9 5 WNW 1019,7 3,8 0 0,0
29.03.2020 07:00:00 3,5 1,7 -0,8 9,9 10,8 8 4 11 6 W 1019,5 4,8 0 0,0
29.03.2020 06:00:00 3,9 1,6 -0,4 10,1 10,8 8 4 11 6 W 1019,6 6 0 0,0
29.03.2020 05:00:00 4,8 1,6 -0,3 10,1 10,8 8 4 10 6 W 1019,6 7 0 0,0
29.03.2020 04:00:00 5,6 2,6 0,1 10,2 10,8 9 5 11 6 W 1019,8 9 0 0,0
29.03.2020 03:00:00 6,2 3,0 0,5 10,3 10,8 7 4 16 8 W 1020,0 9 0 0,0
29.03.2020 02:00:00 7,1 3,3 0,5 10,4 10,8 12 6 16 9 W 1020,2 11 0 0,0
29.03.2020 01:00:00 7,6 3,4 0,5 10,4 10,8 6 4 11 6 WSW 1020,2 13 0 0,0
29.03.2020 00:00:00 7,4 2,5 1,3 10,5 10,8 10 5 13 7 W 1020,1 16 0 0,0
28.03.2020 23:00:00 9,2 3,0 2,0 10,5 10,8 8 4 11 6 WSW 1019,8 18 0 0,0
28.03.2020 22:00:00 10,3 3,1 2,8 10,4 10,8 9 5 11 6 W 1019,4 20 0 0,0
28.03.2020 21:00:00 11,8 2,5 4,3 10,4 10,8 8 5 18 10 WNW 1018,7 23 0 0,0
28.03.2020 20:00:00 14,4 2,6 11,6 10,3 10,8 15 8 23 13 NW 1018,1 31 60 0,0
28.03.2020 19:00:00 16,5 3,5 16,0 10,1 10,8 14 8 28 15 WNW 1017,5 46 60 0,0
28.03.2020 18:00:00 17,6 3,5 20,2 10,0 10,8 18 10 29 15 W 1017,3 20 60 0,0
28.03.2020 17:00:00 18,1 2,8 23,1 9,8 10,8 12 6 30 16 W 1017,4 20 60 0,0
28.03.2020 16:00:00 17,9 2,2 26,1 9,6 10,8 12 7 25 14 W 1017,7 20 60 0,0
28.03.2020 15:00:00 17,7 4,3 25,9 9,4 10,8 14 8 23 13 W 1018,1 16 60 0,0
28.03.2020 14:00:00 17,2 4,5 28,0 9,3 10,8 8 5 20 11 WSW 1018,5 20 60 0,0
28.03.2020 13:00:00 15,3 5,2 26,2 9,2 10,8 7 4 13 7 W 1019,0 14 60 0,0
28.03.2020 12:00:00 13,3 4,4 20,4 9,2 10,8 5 3 12 6 SW 1019,3 17 60 0,0
28.03.2020 11:00:00 10,5 4,2 12,0 9,3 10,8 3 1 8 4 WSW 1019,5 18 60 0,0
28.03.2020 10:00:00 6,4 2,8 1,7 9,4 10,8 0 0 6 3 N 1019,3 12 60 0,0
28.03.2020 09:00:00 2,5 1,5 -1,3 9,5 10,8 5 3 7 4 NE 1019,1 9 53 0,0
28.03.2020 08:00:00 0,6 -0,6 -1,4 9,6 10,8 3 1 4 2 NE 1018,6 9 0 0,0
28.03.2020 07:00:00 0,9 -0,3 -1,3 9,7 10,9 2 1 6 3 ENE 1018,3 10 0 0,0
28.03.2020 06:00:00 1,0 -0,3 -1,6 9,8 10,8 2 1 4 2 ENE 1018,0 9 0 0,0
28.03.2020 05:00:00 0,9 -0,7 -1,7 9,9 10,8 2 1 3 2 NE 1017,8 12 0 0,0
28.03.2020 04:00:00 1,3 -0,5 -1,7 10,0 10,8 0 0 5 3 N 1017,7 14 0 0,0
28.03.2020 03:00:00 1,6 -1,0 -1,5 10,1 10,9 2 1 5 3 SE 1017,8 17 0 0,0
28.03.2020 02:00:00 2,8 -0,5 -1,1 10,1 10,9 2 1 6 3 WNW 1017,7 17 0 0,0
28.03.2020 01:00:00 4,0 0,3 -0,7 10,2 10,9 4 2 8 4 WSW 1017,7 20 0 0,0
28.03.2020 00:00:00 5,6 0,4 0,4 10,3 10,9 4 2 14 8 WSW 1017,5 17 0 0,0
27.03.2020 23:00:00 6,1 0,2 0,2 10,3 10,9 3 2 9 5 W 1017,1 24 0 0,0
27.03.2020 22:00:00 8,4 0,4 1,0 10,3 10,9 6 4 11 6 W 1016,8 28 0 0,0
27.03.2020 21:00:00 10,6 -2,5 2,5 10,2 10,9 7 4 19 10 NW 1016,1 40 0 0,0
27.03.2020 20:00:00 12,9 -1,8 7,1 10,1 10,9 10 6 19 10 NNW 1015,5 41 58 0,0
27.03.2020 19:00:00 15,0 -1,2 14,7 10,0 10,9 14 8 23 13 NW 1014,8 20 60 0,0
27.03.2020 18:00:00 15,6 -0,6 19,6 9,8 10,9 17 9 29 16 NW 1014,5 20 60 0,0
27.03.2020 17:00:00 16,4 -0,8 21,8 9,7 10,9 8 5 23 13 NW 1014,7 19 60 0,0
27.03.2020 16:00:00 16,5 -0,3 24,5 9,5 10,9 9 5 28 15 WNW 1014,9 20 60 0,0
27.03.2020 15:00:00 15,2 -1,4 24,1 9,4 10,9 11 6 27 14 NNW 1015,5 19 60 0,0
27.03.2020 14:00:00 14,2 -2,3 22,8 9,3 10,9 14 8 25 14 NNW 1015,7 19 60 0,0
27.03.2020 13:00:00 13,1 2,6 23,0 9,2 10,9 10 6 20 11 W 1016,3 20 60 0,0
27.03.2020 12:00:00 10,4 3,0 15,1 9,3 10,9 5 3 12 6 SW 1017,0 19 60 0,0
27.03.2020 11:00:00 6,0 2,6 8,2 9,4 10,9 5 3 9 5 WNW 1017,1 16 60 0,0
27.03.2020 10:00:00 2,8 1,9 -0,4 9,5 10,9 3 2 6 4 WNW 1017,1 18 60 0,0
27.03.2020 09:00:00 0,2 -0,5 -4,1 9,6 10,9 4 2 6 4 NE 1017,0 10 40 0,0
27.03.2020 08:00:00 -2,3 -3,3 -4,8 9,7 10,9 5 3 9 5 E 1016,8 6 0 0,0
27.03.2020 07:00:00 -2,1 -3,1 -4,7 9,8 10,9 2 1 4 2 ENE 1016,1 7 0 0,0
27.03.2020 06:00:00 -2,0 -3,0 -4,4 10,0 10,9 5 3 7 4 E 1016,1 8 0 0,0
27.03.2020 05:00:00 -1,5 -2,5 -4,1 10,1 10,9 3 2 6 3 E 1015,9 7 0 0,0
27.03.2020 04:00:00 -1,0 -2,0 -3,5 10,2 10,9 3 2 9 5 SSE 1016,2 9 0 0,0
27.03.2020 03:00:00 -0,4 -1,5 -3,2 10,3 10,9 0 0 9 5 N 1016,1 10 0 0,0
27.03.2020 02:00:00 0,3 -0,7 -2,6 10,4 10,9 5 3 9 5 ESE 1016,1 13 0 0,0
27.03.2020 01:00:00 0,6 -0,7 -2,3 10,5 10,9 4 2 8 5 S 1015,5 11 0 0,0
27.03.2020 00:00:00 1,4 -0,2 -2,0 10,6 10,9 4 2 7 4 E 1015,6 16 0 0,0
26.03.2020 23:00:00 2,8 0,7 -1,6 10,6 10,9 3 1 6 3 E 1015,2 20 0 0,0
26.03.2020 22:00:00 3,7 0,2 -0,8 10,7 10,9 3 2 6 4 E 1015,0 35 0 0,0
26.03.2020 21:00:00 6,8 1,5 1,8 10,6 10,9 5 3 36 19 ESE 1014,3 56 0 0,0
26.03.2020 20:00:00 9,3 1,7 8,3 10,6 10,9 20 11 39 21 SSE 1013,2 51 51 0,0
26.03.2020 19:00:00 11,7 -1,8 10,8 10,5 10,9 8 4 19 10 E 1012,1 40 44 0,0
26.03.2020 18:00:00 12,8 -0,5 14,1 10,4 10,9 8 4 18 10 E 1011,5 30 24 0,0
26.03.2020 17:00:00 11,6 -1,6 13,1 10,3 10,9 6 4 15 8 E 1011,6 40 0 0,0
26.03.2020 16:00:00 11,8 -2,1 14,5 10,1 10,9 10 5 23 13 E 1011,4 36 5 0,0
26.03.2020 15:00:00 12,3 -0,9 17,2 10,0 10,9 9 5 19 11 E 1011,4 49 44 0,0
26.03.2020 14:00:00 12,4 -0,2 20,6 9,9 10,9 8 5 22 12 E 1011,6 35 56 0,0
26.03.2020 13:00:00 12,1 1,7 21,6 9,9 10,9 9 5 22 12 NNE 1011,9 20 58 0,0
26.03.2020 12:00:00 10,6 1,4 17,2 9,9 10,9 9 5 24 13 E 1012,3 52 60 0,0
26.03.2020 11:00:00 9,0 0,9 9,7 10,0 10,9 14 8 22 12 ENE 1012,4 47 60 0,0
26.03.2020 10:00:00 - - - - - - - - - - - - - -

tt = Température de l'air
td = dewpoint
tt 5cm = Température de l'air 5cm
tt -20cm = Température de l'air -20cm
tt -100cm = Température de l'air -100cm
ff = Vitesse du vent
fx = gusts
dd = Direction du vent
ppp = reduced air pressure
vv = visibility
sd = Ensoleillement
rr = Quantités de précipitations

stations d'obs. à proximité